THOR 5

Last updated on Thu Feb 05 2026 00:02:48 GMT+0000 (Coordinated Universal Time)

1 32487U 08006A 26035.34337887 -.00000015 00000+0 00000+0 0 9992 2 32487 0.0527 262.0141 0002572 55.6874 299.6472 1.00270379 65983
UTC large
Height (km)
Speed (km/s)
/
Latitude / Longitude
Inclination (degrees)
Orbital Period (minutes)
Azimuth
Elevation
Range (km)
Doppler Factor

Next 0 passes for location: London (51.5072 / 0.1276)

Sorry there are no passes over London.